SL-8 DEB, 21174

Orbit data source: Space-Track

SL-8 DEB, 21174 is space debris in LEO originally from a launch on Tue, 12 Feb 1991 UTC launched from the Plesetsk Missile And Space Complex (PKMTR). Debris objects in space refer to the collection of defunct objects orbiting the Earth. Examples of debris include non-operational satellites, rocket bodies, and fragments generated from explosions, collisions, or faulty payload assembly.

Loading next visibility...
Identifier
21174, 1991-009AM
Orbit
LEO
Country
Flag of CISCIS
Related business
Manufacturer
Unknown
Mission
Spacecraft
Bus & Motor
Unknown
Mass
Unknown
Launch date (UTC)
1991-02-12 (35 years ago)
Launch vehicle
Unknown
Launch site
Plesetsk Missile And Space Complex (PKMTR)
Object type
Payload
Rocket body
Debris
Shape & HBR
Unknown shape, 0.1 m
Radar Cross Section
Medium (>0.1 m² and <1 m²)

Expand to show TLE details & history
Last TLE update: 2 days ago

TLE from 2 days ago
0 SL-8 DEB
1 21174U 91009AM  26171.36719948  .00000031  00000-0  50162-3 0  9999
2 21174  74.0872 132.3132 0277537 214.0591 304.6654 11.99440017544886
Epoch: 2026-06-20T08:48Z
TLE epoch observation values (Epoch: 2026-06-20T08:48:46.035Z)
Latitude
22.995°
Longitude
-95.37657°
Altitude
1,562.641 km
Speed
7.142 km/s
True Right ascension
20h 21m 35s
True Declination
22° 53' 03"
Sunlit
Object was in daylight at epoch
Visualization orbit readout
Latitude
Unknown
Longitude
Unknown
Altitude
Unknown
Speed
Unknown
Apparent Right ascension
Unknown
Apparent Declination
Unknown
Sunlit
N/A
Visualization observer readout
Local Sidereal Time
02:00:09
Azimuth
Unknown
Elevation
Unknown
Doppler factor
Unknown
Orbital elements
Apogee altitude
1,904.934 km
Perigee altitude
1,457.578 km
Semi-major axis
8,059.393 km
Eccentricity
0.02775
Inclination
74.0872°
RAAN
132.3132°
Arg. of periapsis
214.0591°
True anomaly
301.99797°
Mean anomaly
304.6654°
Eccentric anomaly
303.33689°
Mean motion
2.99978 °/min
Orbital period
120.01 mins
BSTAR
0.00050162
Loading maneuver chart data...
Computing Atmospheric mass density...
Loading historical data...
Loading historical data...
Loading historical data...
Loading historical data...
Loading historical data...
Loading historical data...
Loading historical data...

Documentation

Showing up to 5 results
|